[[{"header":{"parameterUnit":"m.s-1","parameterCategory":1,"la1":30.2991,"la2":30.254,"lo1":-89.0895,"lo2":-89.0444,"dy":0.0017,"dx":0.0017,"nx":28,"ny":28,"refTime":"2025-08-20T03:00:00:Z","depth":0,"parameterNumber":2,"parameterNumberName":"U-component_of_WINDS"},"data":[0,0,0,0,0,0,0,0,0,0,0,0,0,0,0,0,0,0,0,0,0,0,0,0,0,0,0,0,0,0,0,0,0,0,0,0,0,0,0,0,0,0,0,0,0,0,0,0,0,0,0,0,0,0,0,0,0,0,-1.1578,-1.1578,0,-1.1589,-1.1589,-1.1589,-1.1534,-1.1533,-1.1531,-1.153,-1.1541,-1.1543,-1.1545,0,0,0,0,0,0,0,0,0,0,0,0,0,-1.1507,-1.1509,-1.1578,-1.1578,-1.1578,-1.1589,-1.1589,-1.1589,-1.1535,-1.1533,-1.1531,-1.1529,-1.154,-1.1543,-1.1545,0,0,0,0,0,0,0,0,0,0,0,0,0,-1.153,-1.1509,-1.1578,-1.1552,-1.155,-1.1589,-1.1589,-1.1589,-1.1535,-1.1533,-1.153,-1.1528,-1.154,-1.1542,-1.1545,-1.1609,0,0,-1.1553,-1.1554,0,0,0,0,0,0,0,0,-1.1529,-1.1533,-1.1556,-1.1554,-1.1551,-1.1558,-1.1568,-1.1596,-1.1536,-1.1541,-1.153,-1.1527,-1.1549,-1.155,-1.1558,-1.161,-1.161,-1.1553,-1.1555,-1.1556,-1.1557,0,0,0,0,0,0,0,-1.1527,-1.1532,-1.1582,-1.1556,-1.1553,-1.1539,-1.154,-1.1573,-1.1558,-1.154,-1.1536,-1.1538,-1.1547,-1.1555,-1.1558,-1.161,-1.1553,-1.1556,-1.1557,-1.1558,-1.1715,-1.1718,0,0,0,0,0,0,-1.1529,-1.1531,-1.1582,-1.1582,-1.1534,-1.1543,-1.1543,-1.1558,-1.1557,-1.1555,-1.154,-1.1536,-1.1552,-1.1555,-1.1558,-1.1633,-1.1556,-1.1559,-1.156,-1.1713,-1.1716,-1.1719,0,0,0,0,0,0,-1.1528,-1.1534,-1.1581,-1.1556,-1.1561,-1.1546,-1.1564,-1.156,-1.1568,-1.1557,-1.1554,-1.1552,-1.155,-1.1554,-1.1597,-1.1632,-1.156,-1.1562,-1.171,-1.1714,-1.1717,-1.1784,0,0,0,0,0,0,-1.1526,-1.1534,-1.1559,-1.1557,-1.1562,-1.1621,-1.1566,-1.1562,-1.1573,-1.1567,-1.1567,-1.1565,-1.1549,-1.1593,-1.16,-1.1635,-1.1564,-1.1707,-1.1712,-1.1716,-1.1778,-1.1789,-1.1799,0,0,0,0,0,-1.1524,-1.1577,-1.156,-1.1567,-1.1593,-1.1623,-1.1626,-1.1606,-1.1576,-1.16,-1.1593,-1.1565,-1.1628,-1.1598,-1.1605,-1.1641,-1.1704,-1.171,-1.1716,-1.1774,-1.1787,-1.1799,0,0,0,0,0,0,-1.1584,-1.1576,-1.1558,-1.1612,-1.1618,-1.1614,-1.1644,-1.1621,-1.1636,-1.163,-1.1604,-1.1604,-1.1652,-1.1651,-1.1618,-1.1703,-1.1661,-1.1668,-1.1702,-1.1715,-1.1725,-1.1725,-1.1567,0,0,0,0,0,-1.1603,-1.1629,-1.1621,-1.1669,-1.1673,-1.1658,-1.1671,-1.1654,-1.166,-1.1663,-1.1659,-1.1665,-1.1686,-1.17,-1.1719,-1.1778,-1.1777,-1.1806,-1.1817,-1.1825,-1.1832,-1.1862,-1.1875,-1.1738,-1.1738,-1.1738,0,0,-1.1644,-1.1643,-1.166,-1.1681,-1.1684,-1.1711,-1.1661,-1.1691,-1.1711,-1.1667,-1.1707,-1.1705,-1.171,-1.1761,-1.1783,-1.1762,-1.187,-1.1832,-1.1839,-1.1841,-1.187,-1.1883,-1.1894,-1.1742,-1.1741,-1.174,0,0,-1.1731,-1.1733,-1.1774,-1.1778,-1.1783,-1.1773,-1.1783,-1.1781,-1.1778,-1.1818,-1.1786,-1.1808,-1.1845,-1.185,-1.1857,-1.1946,-1.1921,-1.1953,-1.2007,-1.2037,-1.2048,-1.2057,-1.2089,-1.2101,-1.196,-1.196,-1.196,0,-1.1781,-1.182,-1.1797,-1.183,-1.184,-1.1801,-1.1842,-1.1847,-1.1859,-1.1866,-1.1842,-1.1887,-1.1888,-1.1939,-1.1961,-1.1968,-1.1978,-1.1953,-1.2048,-1.2057,-1.2066,-1.2096,-1.2108,-1.1964,-1.1963,-1.1963,-1.1963,0,-1.188,-1.1908,-1.194,-1.1952,-1.1965,-1.2002,-1.1984,-1.2001,-1.1983,-1.1975,-1.2016,-1.2016,-1.2034,-1.2045,-1.2028,-1.2094,-1.208,-1.2053,-1.2009,-1.2083,-1.2111,-1.2122,-1.1969,-1.1968,-1.1967,-1.1966,0,0,-1.2006,-1.2005,-1.2017,-1.2022,-1.2025,-1.2046,-1.208,-1.2098,-1.2112,-1.2121,-1.2149,-1.2181,-1.2155,-1.2164,-1.2147,-1.2174,-1.2244,-1.2142,-1.2142,-1.2161,-1.2316,-1.2337,-1.2351,-1.2227,-1.2229,-1.2231,-1.2316,0,-1.2092,-1.2151,-1.2132,-1.2191,-1.2216,-1.218,-1.221,-1.2215,-1.2209,-1.2228,-1.2221,-1.2244,-1.2208,-1.2213,-1.2237,-1.223,-1.2275,-1.2224,-1.2253,-1.2254,-1.2253,-1.2366,-1.2388,-1.2469,-1.2327,-1.2328,-1.233,0,-1.22,-1.2213,-1.2276,-1.2274,-1.2284,-1.2311,-1.2326,-1.2345,-1.235,-1.2343,-1.2353,-1.233,-1.2364,-1.232,-1.2365,-1.2331,-1.2342,-1.234,-1.2343,-1.2345,-1.2297,-1.2371,-1.2494,-1.2506,-1.2346,-1.2345,-1.2344,0,-1.2286,-1.2319,-1.2361,-1.2366,-1.2365,-1.2385,-1.2386,-1.2388,-1.24,-1.2412,-1.242,-1.2436,-1.2445,-1.2457,-1.244,-1.241,-1.2488,-1.2443,-1.2483,-1.2484,-1.2501,-1.2501,-1.2628,-1.2508,-1.2508,-1.2508,-1.2507,0,-1.2383,-1.2423,-1.2399,-1.2425,-1.2468,-1.2445,-1.2488,-1.2485,-1.2487,-1.2511,-1.248,-1.2504,-1.2479,-1.25,-1.2486,-1.2526,-1.253,-1.2525,-1.2521,-1.2528,-1.2529,-1.2535,-1.2529,-1.2511,-1.251,-1.251,-1.2509,0,-1.2487,-1.2472,-1.2515,-1.2511,-1.2511,-1.2543,-1.2539,-1.2562,-1.2553,-1.2584,-1.259,-1.2576,-1.2598,-1.2582,-1.2605,-1.2596,-1.2648,-1.2636,-1.2646,-1.2643,-1.2684,-1.2681,-1.282,-1.2837,-1.2707,-1.2708,-1.2709,0,-1.255,-1.258,-1.2579,-1.2593,-1.2595,-1.2618,-1.263,-1.2608,-1.2621,-1.2629,-1.2651,-1.2672,-1.2687,-1.2725,-1.2716,-1.2733,-1.2722,-1.2769,-1.2724,-1.273,-1.2722,-1.2721,-1.2724,-1.2779,-1.278,-1.2781,-1.2782,0,-1.2664,-1.2656,-1.2674,-1.269,-1.2705,-1.2716,-1.2725,-1.2738,-1.2716,-1.2732,-1.2755,-1.2767,-1.279,-1.2811,-1.2825,-1.2825,-1.28,-1.2797,-1.2807,-1.2814,-1.2819,-1.2817,-1.2672,-1.2794,-1.2793,-1.2792,-1.2791,-1.2791,-1.275,-1.2774,-1.2777,-1.2798,-1.2803,-1.2812,-1.2833,-1.2827,-1.2846,-1.2863,-1.2849,-1.2876,-1.288,-1.2896,-1.2899,-1.292,-1.2901,-1.2915,-1.2919,-1.2923,-1.2929,-1.2816,-1.2923,-1.2922,-1.2922,-1.2922,-1.2921,0,-1.2862,-1.2862,-1.2882,-1.2895,-1.2912,-1.2887,-1.2896,-1.2911,-1.2936,-1.2941,-1.2957,-1.2983,-1.3003,-1.2996,-1.3013,-1.3031,-1.302,-1.3036,-1.3035,-1.3035,-1.2946,-1.2935,-1.3045,-1.3045,-1.3045,-1.3045,-1.3045,-1.3045,-1.2923,-1.2963,-1.2955,-1.2997,-1.2996,-1.3023,-1.303,-1.3038,-1.3042,-1.3073,-1.3089,-1.3084,-1.3085,-1.3102,-1.3118,-1.3116,-1.3124,-1.3144,-1.3137,-1.3054,-1.3042,-1.303,-1.302,-1.3146,-1.3146,-1.3225,-1.3226,-1.3227]},{"header":{"parameterUnit":"m.s-1","parameterCategory":1,"la1":30.2991,"la2":30.254,"lo1":-89.0895,"lo2":-89.0444,"dy":0.0017,"dx":0.0017,"nx":28,"ny":28,"refTime":"2025-08-20T03:00:00:Z","depth":0,"parameterNumber":3,"parameterNumberName":"V-component_of_WINDS"},"data":[0,0,0,0,0,0,0,0,0,0,0,0,0,0,0,0,0,0,0,0,0,0,0,0,0,0,0,0,0,0,0,0,0,0,0,0,0,0,0,0,0,0,0,0,0,0,0,0,0,0,0,0,0,0,0,0,0,0,-1.4526,-1.4526,0,-1.4549,-1.4549,-1.4549,-1.4532,-1.4531,-1.4531,-1.453,-1.4554,-1.4555,-1.4557,0,0,0,0,0,0,0,0,0,0,0,0,0,-1.4468,-1.4469,-1.4526,-1.4526,-1.4526,-1.4548,-1.4549,-1.4549,-1.4532,-1.4531,-1.453,-1.453,-1.4554,-1.4555,-1.4557,0,0,0,0,0,0,0,0,0,0,0,0,0,-1.4492,-1.4469,-1.4526,-1.4521,-1.452,-1.4548,-1.4549,-1.4549,-1.4532,-1.4531,-1.453,-1.4529,-1.4553,-1.4555,-1.4557,-1.4592,0,0,-1.4563,-1.4564,0,0,0,0,0,0,0,0,-1.4491,-1.4494,-1.4521,-1.4521,-1.4521,-1.4536,-1.4537,-1.4563,-1.4533,-1.4528,-1.453,-1.4529,-1.4549,-1.4551,-1.4558,-1.4593,-1.4594,-1.4563,-1.4565,-1.4565,-1.4566,0,0,0,0,0,0,0,-1.4489,-1.4493,-1.4535,-1.4521,-1.4521,-1.4517,-1.4519,-1.4542,-1.4545,-1.4528,-1.4527,-1.453,-1.4549,-1.4556,-1.4559,-1.4594,-1.4563,-1.4565,-1.4566,-1.4567,-1.4658,-1.4659,0,0,0,0,0,0,-1.4488,-1.4492,-1.4534,-1.4535,-1.4503,-1.4519,-1.4522,-1.4532,-1.4544,-1.4545,-1.4531,-1.4529,-1.4553,-1.4556,-1.4559,-1.46,-1.4565,-1.4567,-1.4568,-1.4657,-1.4658,-1.466,0,0,0,0,0,0,-1.4486,-1.4492,-1.4533,-1.4513,-1.4518,-1.4521,-1.4534,-1.4533,-1.4541,-1.4546,-1.4547,-1.4538,-1.4553,-1.4557,-1.4584,-1.4601,-1.4568,-1.457,-1.4655,-1.4657,-1.4659,-1.4683,0,0,0,0,0,0,-1.4485,-1.4491,-1.4504,-1.4514,-1.4519,-1.4557,-1.4535,-1.4535,-1.4544,-1.4542,-1.4553,-1.4554,-1.4552,-1.4581,-1.4586,-1.4603,-1.4572,-1.4654,-1.4656,-1.4658,-1.4681,-1.4685,-1.4689,0,0,0,0,0,-1.4483,-1.4511,-1.4505,-1.451,-1.4536,-1.4558,-1.4561,-1.4559,-1.4546,-1.4559,-1.4562,-1.4553,-1.4598,-1.4584,-1.4589,-1.4607,-1.4653,-1.4655,-1.4658,-1.4679,-1.4685,-1.4689,0,0,0,0,0,0,-1.4504,-1.4512,-1.4506,-1.4537,-1.4547,-1.4555,-1.4572,-1.4565,-1.4579,-1.4576,-1.4572,-1.4575,-1.4603,-1.4608,-1.4592,-1.4641,-1.4623,-1.4627,-1.4637,-1.4643,-1.4647,-1.4646,-1.4573,0,0,0,0,0,-1.4512,-1.4529,-1.4535,-1.4563,-1.4568,-1.4569,-1.4578,-1.4575,-1.4585,-1.459,-1.4595,-1.4605,-1.4621,-1.4632,-1.4648,-1.4681,-1.4683,-1.4696,-1.4701,-1.4704,-1.4708,-1.4726,-1.4732,-1.4668,-1.4668,-1.4668,0,0,-1.4529,-1.4536,-1.4547,-1.4567,-1.4574,-1.4592,-1.4573,-1.4592,-1.4606,-1.4593,-1.4618,-1.4623,-1.4634,-1.4664,-1.4678,-1.4669,-1.4726,-1.4708,-1.4711,-1.4712,-1.4729,-1.4735,-1.474,-1.467,-1.467,-1.467,0,0,-1.457,-1.4577,-1.46,-1.4607,-1.4618,-1.4619,-1.4624,-1.4633,-1.4635,-1.4661,-1.4652,-1.4667,-1.4696,-1.4704,-1.4712,-1.4755,-1.4747,-1.476,-1.4783,-1.48,-1.4805,-1.481,-1.4825,-1.4831,-1.4763,-1.4763,-1.4763,0,-1.459,-1.4617,-1.4613,-1.4633,-1.4642,-1.4631,-1.4654,-1.4662,-1.4677,-1.4684,-1.4673,-1.4708,-1.4715,-1.4747,-1.4757,-1.4764,-1.477,-1.4759,-1.4805,-1.4809,-1.4813,-1.4828,-1.4834,-1.4765,-1.4765,-1.4765,-1.4764,0,-1.4641,-1.466,-1.4677,-1.4692,-1.4703,-1.4725,-1.4724,-1.4735,-1.4731,-1.4733,-1.4759,-1.4766,-1.4783,-1.479,-1.4787,-1.4822,-1.4816,-1.4805,-1.4787,-1.4821,-1.4835,-1.484,-1.4767,-1.4766,-1.4766,-1.4766,0,0,-1.4696,-1.4708,-1.4715,-1.4721,-1.4732,-1.4746,-1.4767,-1.4783,-1.4793,-1.4804,-1.4821,-1.4845,-1.4835,-1.4844,-1.4841,-1.4857,-1.489,-1.4844,-1.4845,-1.4853,-1.4929,-1.4937,-1.4943,-1.4885,-1.4886,-1.4887,-1.4928,0,-1.4738,-1.4774,-1.4771,-1.4806,-1.4823,-1.4812,-1.483,-1.4839,-1.4841,-1.4855,-1.4857,-1.4874,-1.486,-1.4865,-1.488,-1.4883,-1.4905,-1.488,-1.4901,-1.4902,-1.4899,-1.4951,-1.4959,-1.4998,-1.4933,-1.4934,-1.4935,0,-1.4791,-1.4803,-1.4839,-1.4847,-1.4854,-1.4871,-1.4885,-1.4899,-1.4908,-1.4908,-1.4918,-1.4912,-1.4934,-1.4915,-1.4944,-1.4927,-1.4935,-1.4938,-1.494,-1.4942,-1.4921,-1.4954,-1.501,-1.5016,-1.4943,-1.4943,-1.4942,0,-1.4827,-1.4853,-1.4878,-1.4884,-1.4893,-1.4905,-1.491,-1.4918,-1.4928,-1.494,-1.4946,-1.4961,-1.4969,-1.498,-1.4979,-1.4965,-1.5008,-1.499,-1.5009,-1.501,-1.5019,-1.5019,-1.5078,-1.5025,-1.5025,-1.5024,-1.5024,0,-1.4874,-1.4897,-1.4894,-1.491,-1.4935,-1.4931,-1.4955,-1.4959,-1.4966,-1.4982,-1.4973,-1.4988,-1.4985,-1.5,-1.4999,-1.5024,-1.5027,-1.5028,-1.5028,-1.5029,-1.5029,-1.5035,-1.5032,-1.5026,-1.5026,-1.5025,-1.5025,0,-1.4919,-1.4919,-1.4945,-1.4952,-1.4954,-1.4972,-1.4978,-1.4992,-1.4993,-1.5013,-1.5018,-1.5019,-1.5037,-1.5036,-1.5056,-1.5055,-1.5085,-1.5081,-1.5082,-1.5081,-1.5101,-1.5099,-1.5166,-1.5174,-1.5116,-1.5116,-1.5117,0,-1.4949,-1.4966,-1.4975,-1.4984,-1.499,-1.5006,-1.5015,-1.5011,-1.5022,-1.5033,-1.5046,-1.5063,-1.5076,-1.5104,-1.5107,-1.5122,-1.5118,-1.5141,-1.5121,-1.5121,-1.5119,-1.5118,-1.512,-1.5145,-1.5145,-1.5146,-1.5146,0,-1.5002,-1.5001,-1.5015,-1.5028,-1.504,-1.505,-1.506,-1.5069,-1.5066,-1.5078,-1.5095,-1.5105,-1.5125,-1.5141,-1.5155,-1.516,-1.5153,-1.5152,-1.5158,-1.516,-1.5159,-1.516,-1.5093,-1.5151,-1.5151,-1.515,-1.515,-1.515,-1.5041,-1.5055,-1.5063,-1.5079,-1.5086,-1.5095,-1.5109,-1.5111,-1.5125,-1.5141,-1.5138,-1.5157,-1.5166,-1.5184,-1.519,-1.5205,-1.5197,-1.5205,-1.5207,-1.5209,-1.5211,-1.5156,-1.5208,-1.5207,-1.5207,-1.5207,-1.5207,0,-1.5094,-1.5098,-1.5112,-1.5126,-1.5138,-1.5129,-1.5139,-1.515,-1.5167,-1.5176,-1.5188,-1.5208,-1.5224,-1.5228,-1.5243,-1.5254,-1.5251,-1.5258,-1.5258,-1.5259,-1.5218,-1.5211,-1.526,-1.526,-1.526,-1.526,-1.526,-1.526,-1.5122,-1.5147,-1.5146,-1.5173,-1.5177,-1.5196,-1.5202,-1.5211,-1.5217,-1.524,-1.5252,-1.5255,-1.5261,-1.5277,-1.5291,-1.5291,-1.5298,-1.5306,-1.5306,-1.5267,-1.5262,-1.5257,-1.5251,-1.5307,-1.5307,-1.5346,-1.5346,-1.5346]}]]